Location: Eckley Miners' Village
(40.9930°N, 75.8630°W)
Time: 10:10:17
(UTC-04:00)

Vanguard 1 Rocket - Pass Details

Date: 15 March 2026
Orbit: 654 x 4213 km, 34.3° (Epoch: 11 April)

Event Time Altitude Azimuth Distance (km) Brightness Sun altitude
Rises 13:45:16 0° 259° (W) 3,260 10.5 46.4°
Reaches altitude 10° 13:48:26 10° 236° (SW) 2,616 10.4 46.3°
Maximum altitude 13:51:57 16° 200° (SSW) 2,608 10.9 46.1°
Drops below altitude 10° 13:56:31 10° 167° (SSE) 3,572 11.3 45.9°
Sets 14:02:13 0° 149° (SSE) 5,299 11.7 45.6°
